owner,sensor,date,latitude,longitude,vertical_datum,wind_speed,wind_to_direction,wind_speed_of_gust,qcFlag 
TABS,ioos:station:wmo:42043:1,2006-11-01T00:00:00Z,28.9818,-94.9186,4.0,4.378607084,152.6744455,5.45,'11111222,11111222,11111222' 
TABS,ioos:station:wmo:42043:1,2006-11-01T00:30:00Z,28.9818,-94.9186,4.0,4.011545837,153.1797241,5.1,'11111222,11111222,11111222' 
TABS,ioos:station:wmo:42043:1,2006-11-01T01:00:00Z,28.9818,-94.9186,4.0,4.002324325,146.8263847,4.92,'11111222,11111222,11111222' 
TABS,ioos:station:wmo:42043:1,2006-11-01T01:30:00Z,28.9818,-94.9186,4.0,4.052172257,154.2572879,5.24,'11111222,11111222,11111222' 
TABS,ioos:station:wmo:42043:1,2006-11-01T02:00:00Z,28.9818,-94.9186,4.0,4.347746543,156.2652462,5.47,'11111222,11111222,11111222' 
TABS,ioos:station:wmo:42043:1,2006-11-01T02:30:00Z,28.9818,-94.9186,4.0,3.860634663,158.4193247,5.13,'11111222,11111222,11111222' 
TABS,ioos:station:wmo:42043:1,2006-11-01T03:00:00Z,28.9818,-94.9186,4.0,4.399659078,164.0369637,5.24,'11111222,11111222,11111222' 
TABS,ioos:station:wmo:42043:1,2006-11-01T03:30:00Z,28.9818,-94.9186,4.0,4.02514596,167.5177503,5.02,'11111222,11111222,11111222' 
TABS,ioos:station:wmo:42043:1,2006-11-01T04:00:00Z,28.9818,-94.9186,4.0,3.703970842,170.2073133,4.76,'11111222,11111222,11111222' 
TABS,ioos:station:wmo:42043:1,2006-11-01T04:30:00Z,28.9818,-94.9186,4.0,3.682458418,167.1339064,4.64,'11111222,11111222,11111222' 
TABS,ioos:station:wmo:42043:1,2006-11-01T05:00:00Z,28.9818,-94.9186,4.0,3.592005011,165.6545058,4.21,'11111222,11111222,11111222' 
TABS,ioos:station:wmo:42043:1,2006-11-01T05:30:00Z,28.9818,-94.9186,4.0,3.288920796,161.0144021,3.93,'11111222,11111222,11111222' 
TABS,ioos:station:wmo:42043:1,2006-11-01T06:00:00Z,28.9818,-94.9186,4.0,2.989397933,163.0807091,3.73,'11111222,11111222,11111222' 
TABS,ioos:station:wmo:42043:1,2006-11-01T06:30:00Z,28.9818,-94.9186,4.0,3.095561338,157.9926298,3.86,'11111222,11111222,11111222' 
TABS,ioos:station:wmo:42043:1,2006-11-01T07:00:00Z,28.9818,-94.9186,4.0,2.770415131,162.3501275,3.38,'11111222,11111222,11111222' 
TABS,ioos:station:wmo:42043:1,2006-11-01T07:30:00Z,28.9818,-94.9186,4.0,2.736512379,159.9098221,3.46,'11111222,11111222,11111222' 
TABS,ioos:station:wmo:42043:1,2006-11-01T08:00:00Z,28.9818,-94.9186,4.0,2.924739305,150.2796971,3.77,'11111222,11111222,11111222' 
TABS,ioos:station:wmo:42043:1,2006-11-01T08:30:00Z,28.9818,-94.9186,4.0,2.538601977,134.5215331,3.22,'11111222,11111222,11111222' 
TABS,ioos:station:wmo:42043:1,2006-11-01T09:00:00Z,28.9818,-94.9186,4.0,2.328991198,129.7744005,3.04,'11111222,11111222,11111222' 
TABS,ioos:station:wmo:42043:1,2006-11-01T09:30:00Z,28.9818,-94.9186,4.0,2.284841351,133.4042556,3.14,'11111222,11111222,11111222' 
TABS,ioos:station:wmo:42043:1,2006-11-01T10:00:00Z,28.9818,-94.9186,4.0,2.698758974,128.2291033,3.34,'11111222,11111222,11111222' 
TABS,ioos:station:wmo:42043:1,2006-11-01T10:30:00Z,28.9818,-94.9186,4.0,2.772381648,127.8209386,3.42,'11111222,11111222,11111222' 
TABS,ioos:station:wmo:42043:1,2006-11-01T11:00:00Z,28.9818,-94.9186,4.0,2.512866889,128.3752653,2.99,'11111222,11111222,11111222' 
TABS,ioos:station:wmo:42043:1,2006-11-01T11:30:00Z,28.9818,-94.9186,4.0,1.892353033,118.0550319,2.35,'11111222,11111222,11111222' 
TABS,ioos:station:wmo:42043:1,2006-11-01T12:00:00Z,28.9818,-94.9186,4.0,2.126805116,94.58507307,2.73,'11111222,11111222,11111222' 
TABS,ioos:station:wmo:42043:1,2006-11-01T12:30:00Z,28.9818,-94.9186,4.0,2.207079518,104.1625559,2.7,'11111222,11111222,11111222' 
TABS,ioos:station:wmo:42043:1,2006-11-01T13:00:00Z,28.9818,-94.9186,4.0,2.658871941,135.6098208,3.39,'11111222,11111222,11111222' 
TABS,ioos:station:wmo:42043:1,2006-11-01T13:30:00Z,28.9818,-94.9186,4.0,1.353403118,104.5500197,1.77,'11111222,11111222,11111222' 
TABS,ioos:station:wmo:42043:1,2006-11-01T14:00:00Z,28.9818,-94.9186,4.0,1.820439507,54.38880992,2.29,'11111222,11111222,11111222' 
TABS,ioos:station:wmo:42043:1,2006-11-01T14:30:00Z,28.9818,-94.9186,4.0,3.164253466,58.57008696,5.66,'11111222,11111222,11111222' 
TABS,ioos:station:wmo:42043:1,2006-11-01T15:00:00Z,28.9818,-94.9186,4.0,5.220670455,31.52812995,6.62,'11111222,11111222,11111222' 
TABS,ioos:station:wmo:42043:1,2006-11-01T15:30:00Z,28.9818,-94.9186,4.0,5.220239458,41.66057592,6.27,'11111222,11111222,11111222' 
TABS,ioos:station:wmo:42043:1,2006-11-01T16:00:00Z,28.9818,-94.9186,4.0,5.49637153,26.93773115,6.59,'11111222,11111222,11111222' 
TABS,ioos:station:wmo:42043:1,2006-11-01T16:30:00Z,28.9818,-94.9186,4.0,6.106594796,17.93029297,7.21,'11111222,11111222,11111222' 
TABS,ioos:station:wmo:42043:1,2006-11-01T17:00:00Z,28.9818,-94.9186,4.0,5.621823548,27.20288987,6.8,'11111222,11111222,11111222' 
TABS,ioos:station:wmo:42043:1,2006-11-01T17:30:00Z,28.9818,-94.9186,4.0,5.460201461,20.02767458,7.16,'11111222,11111222,11111222' 
TABS,ioos:station:wmo:42043:1,2006-11-01T18:00:00Z,28.9818,-94.9186,4.0,6.198459486,26.85414808,7.42,'11111222,11111222,11111222' 
TABS,ioos:station:wmo:42043:1,2006-11-01T18:30:00Z,28.9818,-94.9186,4.0,5.835451996,17.34791634,7.75,'11111222,11111222,11111222' 
TABS,ioos:station:wmo:42043:1,2006-11-01T19:00:00Z,28.9818,-94.9186,4.0,6.2291733,9.144539811,7.76,'11111222,11111222,11111222' 
TABS,ioos:station:wmo:42043:1,2006-11-01T19:30:00Z,28.9818,-94.9186,4.0,5.335934782,20.74429987,7.01,'11111222,11111222,11111222' 
TABS,ioos:station:wmo:42043:1,2006-11-01T20:00:00Z,28.9818,-94.9186,4.0,5.871047607,15.40893877,7.43,'11111222,11111222,11111222' 
TABS,ioos:station:wmo:42043:1,2006-11-01T20:30:00Z,28.9818,-94.9186,4.0,5.890636638,16.7735256,7.41,'11111222,11111222,11111222' 
TABS,ioos:station:wmo:42043:1,2006-11-01T21:00:00Z,28.9818,-94.9186,4.0,5.590599252,15.77621799,7.01,'11111222,11111222,11111222' 
TABS,ioos:station:wmo:42043:1,2006-11-01T21:30:00Z,28.9818,-94.9186,4.0,6.060404277,16.19188672,7.82,'11111222,11111222,11111222' 
TABS,ioos:station:wmo:42043:1,2006-11-01T22:00:00Z,28.9818,-94.9186,4.0,5.762794461,19.56662439,7.11,'11111222,11111222,11111222' 
TABS,ioos:station:wmo:42043:1,2006-11-01T22:30:00Z,28.9818,-94.9186,4.0,10.12948172,354.3342358,11.91,'11111222,11111222,11111222' 
TABS,ioos:station:wmo:42043:1,2006-11-01T23:00:00Z,28.9818,-94.9186,4.0,9.44204427,6.018310076,11.13,'11111222,11111222,11111222' 
TABS,ioos:station:wmo:42043:1,2006-11-01T23:30:00Z,28.9818,-94.9186,4.0,8.160275731,6.968029988,10.06,'11111222,11111222,11111222' 
TABS,ioos:station:wmo:42043:1,2006-11-02T00:00:00Z,28.9818,-94.9186,4.0,7.360142662,9.462089622,8.81,'11111222,11111222,11111222' 
TABS,ioos:station:wmo:42043:1,2006-11-02T00:30:00Z,28.9818,-94.9186,4.0,8.478378383,11.77356413,10.4,'11111222,11111222,11111222' 
TABS,ioos:station:wmo:42043:1,2006-11-02T01:00:00Z,28.9818,-94.9186,4.0,8.385254916,10.30461191,10.2,'11111222,11111222,11111222' 
TABS,ioos:station:wmo:42043:1,2006-11-02T01:30:00Z,28.9818,-94.9186,4.0,9.316007729,16.33375908,11.08,'11111222,11111222,11111222' 
TABS,ioos:station:wmo:42043:1,2006-11-02T02:00:00Z,28.9818,-94.9186,4.0,10.22035714,15.25978939,12.06,'11111222,11111222,11111222' 
TABS,ioos:station:wmo:42043:1,2006-11-02T02:30:00Z,28.9818,-94.9186,4.0,10.63586856,19.26945231,12.64,'11111222,11111222,11111222' 
TABS,ioos:station:wmo:42043:1,2006-11-02T03:00:00Z,28.9818,-94.9186,4.0,10.33319409,23.86088412,12.24,'11111222,11111222,11111222' 
TABS,ioos:station:wmo:42043:1,2006-11-02T03:30:00Z,28.9818,-94.9186,4.0,9.927064017,15.84208429,11.91,'11111222,11111222,11111222' 
TABS,ioos:station:wmo:42043:1,2006-11-02T04:00:00Z,28.9818,-94.9186,4.0,9.613932598,22.37663064,12.01,'11111222,11111222,11111222' 
TABS,ioos:station:wmo:42043:1,2006-11-02T04:30:00Z,28.9818,-94.9186,4.0,9.817586261,25.65125802,12.18,'11111222,11111222,11111222' 
TABS,ioos:station:wmo:42043:1,2006-11-02T05:00:00Z,28.9818,-94.9186,4.0,9.647740668,25.60861181,11.74,'11111222,11111222,11111222' 
TABS,ioos:station:wmo:42043:1,2006-11-02T05:30:00Z,28.9818,-94.9186,4.0,9.845491354,17.4961098,11.76,'11111222,11111222,11111222' 
TABS,ioos:station:wmo:42043:1,2006-11-02T06:00:00Z,28.9818,-94.9186,4.0,9.68048036,21.44944315,12.17,'11111222,11111222,11111222' 
TABS,ioos:station:wmo:42043:1,2006-11-02T06:30:00Z,28.9818,-94.9186,4.0,9.76090672,14.96142094,11.47,'11111222,11111222,11111222' 
TABS,ioos:station:wmo:42043:1,2006-11-02T07:00:00Z,28.9818,-94.9186,4.0,9.961094317,14.35686361,12.22,'11111222,11111222,11111222' 
TABS,ioos:station:wmo:42043:1,2006-11-02T07:30:00Z,28.9818,-94.9186,4.0,9.302671659,17.12964787,11.46,'11111222,11111222,11111222' 
TABS,ioos:station:wmo:42043:1,2006-11-02T08:00:00Z,28.9818,-94.9186,4.0,9.402988887,16.62312196,12.06,'11111222,11111222,11111222' 
TABS,ioos:station:wmo:42043:1,2006-11-02T08:30:00Z,28.9818,-94.9186,4.0,9.652983995,21.19492586,12.41,'11111222,11111222,11111222' 
TABS,ioos:station:wmo:42043:1,2006-11-02T09:00:00Z,28.9818,-94.9186,4.0,9.357745455,22.4264974,12.17,'11111222,11111222,11111222' 
TABS,ioos:station:wmo:42043:1,2006-11-02T09:30:00Z,28.9818,-94.9186,4.0,9.832242877,23.30544895,12.35,'11111222,11111222,11111222' 
TABS,ioos:station:wmo:42043:1,2006-11-02T10:00:00Z,28.9818,-94.9186,4.0,9.770818799,23.65261585,12.46,'11111222,11111222,11111222' 
TABS,ioos:station:wmo:42043:1,2006-11-02T10:30:00Z,28.9818,-94.9186,4.0,9.989764762,25.05127355,13.19,'11111222,11111222,11111222' 
TABS,ioos:station:wmo:42043:1,2006-11-02T11:00:00Z,28.9818,-94.9186,4.0,10.50167606,25.73517221,14.15,'11111222,11111222,11111222' 
TABS,ioos:station:wmo:42043:1,2006-11-02T11:30:00Z,28.9818,-94.9186,4.0,10.58649139,21.79109794,13.71,'11111222,11111222,11111222' 
TABS,ioos:station:wmo:42043:1,2006-11-02T12:00:00Z,28.9818,-94.9186,4.0,10.5781142,18.00648465,13.91,'11111222,11111222,11111222' 
TABS,ioos:station:wmo:42043:1,2006-11-02T12:30:00Z,28.9818,-94.9186,4.0,10.81881694,22.1551846,14.48,'11111222,11111222,11111222' 
TABS,ioos:station:wmo:42043:1,2006-11-02T13:00:00Z,28.9818,-94.9186,4.0,10.02722793,28.40496955,13.38,'11111222,11111222,11111222' 
TABS,ioos:station:wmo:42043:1,2006-11-02T13:30:00Z,28.9818,-94.9186,4.0,9.760128073,22.9131218,12.83,'11111222,11111222,11111222' 
TABS,ioos:station:wmo:42043:1,2006-11-02T14:00:00Z,28.9818,-94.9186,4.0,9.339491421,19.38533156,11.69,'11111222,11111222,11111222' 
TABS,ioos:station:wmo:42043:1,2006-11-02T14:30:00Z,28.9818,-94.9186,4.0,9.699200998,20.58344237,12.84,'11111222,11111222,11111222' 
TABS,ioos:station:wmo:42043:1,2006-11-02T15:00:00Z,28.9818,-94.9186,4.0,9.50846465,22.57324965,11.96,'11111222,11111222,11111222' 
TABS,ioos:station:wmo:42043:1,2006-11-02T15:30:00Z,28.9818,-94.9186,4.0,9.025408578,25.88339571,11.78,'11111222,11111222,11111222' 
TABS,ioos:station:wmo:42043:1,2006-11-02T16:00:00Z,28.9818,-94.9186,4.0,9.29684355,20.98857951,12.28,'11111222,11111222,11111222' 
TABS,ioos:station:wmo:42043:1,2006-11-02T16:30:00Z,28.9818,-94.9186,4.0,9.92937561,19.83988166,12.39,'11111222,11111222,11111222' 
TABS,ioos:station:wmo:42043:1,2006-11-02T17:00:00Z,28.9818,-94.9186,4.0,9.162013971,16.15989844,11.91,'11111222,11111222,11111222' 
TABS,ioos:station:wmo:42043:1,2006-11-02T17:30:00Z,28.9818,-94.9186,4.0,8.934606874,16.6498561,12.18,'11111222,11111222,11111222' 
TABS,ioos:station:wmo:42043:1,2006-11-02T18:00:00Z,28.9818,-94.9186,4.0,8.050149067,24.59094613,11.05,'11111222,11111222,11111222' 
TABS,ioos:station:wmo:42043:1,2006-11-02T18:30:00Z,28.9818,-94.9186,4.0,7.940232994,23.52994896,10.54,'11111222,11111222,11111222' 
TABS,ioos:station:wmo:42043:1,2006-11-02T19:00:00Z,28.9818,-94.9186,4.0,8.526482276,27.97734403,11.7,'11111222,11111222,11111222' 
TABS,ioos:station:wmo:42043:1,2006-11-02T19:30:00Z,28.9818,-94.9186,4.0,7.86155837,22.74854461,10.77,'11111222,11111222,11111222' 
TABS,ioos:station:wmo:42043:1,2006-11-02T20:00:00Z,28.9818,-94.9186,4.0,8.245950521,28.30518514,11.39,'11111222,11111222,11111222' 
TABS,ioos:station:wmo:42043:1,2006-11-02T20:30:00Z,28.9818,-94.9186,4.0,8.112459553,26.50160812,10.35,'11111222,11111222,11111222' 
TABS,ioos:station:wmo:42043:1,2006-11-02T21:00:00Z,28.9818,-94.9186,4.0,7.736620709,30.44273397,10.05,'11111222,11111222,11111222' 
TABS,ioos:station:wmo:42043:1,2006-11-02T21:30:00Z,28.9818,-94.9186,4.0,7.967992219,29.71784429,11.19,'11111222,11111222,11111222' 
TABS,ioos:station:wmo:42043:1,2006-11-02T22:00:00Z,28.9818,-94.9186,4.0,7.395302563,28.15880138,9.85,'11111222,11111222,11111222' 
TABS,ioos:station:wmo:42043:1,2006-11-02T22:30:00Z,28.9818,-94.9186,4.0,8.158903113,31.72223227,11.31,'11111222,11111222,11111222' 
TABS,ioos:station:wmo:42043:1,2006-11-02T23:00:00Z,28.9818,-94.9186,4.0,7.926670171,33.62963592,11.49,'11111222,11111222,11111222' 
TABS,ioos:station:wmo:42043:1,2006-11-02T23:30:00Z,28.9818,-94.9186,4.0,7.725652076,32.57897857,10.35,'11111222,11111222,11111222' 
TABS,ioos:station:wmo:42043:1,2006-11-03T00:00:00Z,28.9818,-94.9186,4.0,8.027758093,34.6993759,11.43,'11111222,11111222,11111222' 
TABS,ioos:station:wmo:42043:1,2006-11-03T00:30:00Z,28.9818,-94.9186,4.0,8.452455265,31.84702153,11.16,'11111222,11111222,11111222' 
TABS,ioos:station:wmo:42043:1,2006-11-03T01:00:00Z,28.9818,-94.9186,4.0,8.882190045,31.41705011,11.81,'11111222,11111222,11111222' 
TABS,ioos:station:wmo:42043:1,2006-11-03T01:30:00Z,28.9818,-94.9186,4.0,9.195286836,32.79109677,12.5,'11111222,11111222,11111222' 
TABS,ioos:station:wmo:42043:1,2006-11-03T02:00:00Z,28.9818,-94.9186,4.0,8.851242851,41.1977973,12.4,'11111222,11111222,11111222' 
TABS,ioos:station:wmo:42043:1,2006-11-03T02:30:00Z,28.9818,-94.9186,4.0,9.573238741,35.94787424,12.92,'11111222,11111222,11111222' 
TABS,ioos:station:wmo:42043:1,2006-11-03T03:00:00Z,28.9818,-94.9186,4.0,9.4331808,39.10534199,12.41,'11111222,11111222,11111222' 
TABS,ioos:station:wmo:42043:1,2006-11-03T03:30:00Z,28.9818,-94.9186,4.0,9.200315212,42.62107876,13.04,'11111222,11111222,11111222' 
TABS,ioos:station:wmo:42043:1,2006-11-03T04:00:00Z,28.9818,-94.9186,4.0,10.77568095,56.92897859,13.66,'11111222,11111222,11111222' 
TABS,ioos:station:wmo:42043:1,2006-11-03T04:30:00Z,28.9818,-94.9186,4.0,9.153365501,50.274246,12.41,'11111222,11111222,11111222' 
TABS,ioos:station:wmo:42043:1,2006-11-03T05:00:00Z,28.9818,-94.9186,4.0,8.87520704,56.25587569,11.8,'11111222,11111222,11111222' 
TABS,ioos:station:wmo:42043:1,2006-11-03T05:30:00Z,28.9818,-94.9186,4.0,8.59982558,58.21319792,11.54,'11111222,11111222,11111222' 
TABS,ioos:station:wmo:42043:1,2006-11-03T06:00:00Z,28.9818,-94.9186,4.0,9.024993075,56.43284446,12.4,'11111222,11111222,11111222' 
TABS,ioos:station:wmo:42043:1,2006-11-03T06:30:00Z,28.9818,-94.9186,4.0,8.840933209,59.402671,12.17,'11111222,11111222,11111222' 
TABS,ioos:station:wmo:42043:1,2006-11-03T07:00:00Z,28.9818,-94.9186,4.0,8.586506857,65.28508235,11.88,'11111222,11111222,11111222' 
TABS,ioos:station:wmo:42043:1,2006-11-03T07:30:00Z,28.9818,-94.9186,4.0,8.524810848,64.27622837,13.03,'11111222,11111222,11111222' 
TABS,ioos:station:wmo:42043:1,2006-11-03T08:00:00Z,28.9818,-94.9186,4.0,8.483784533,63.76682252,11.14,'11111222,11111222,11111222' 
TABS,ioos:station:wmo:42043:1,2006-11-03T08:30:00Z,28.9818,-94.9186,4.0,8.233844788,64.15035933,11.0,'11111222,11111222,11111222' 
TABS,ioos:station:wmo:42043:1,2006-11-03T09:00:00Z,28.9818,-94.9186,4.0,8.641834296,59.16096959,11.46,'11111222,11111222,11111222' 
TABS,ioos:station:wmo:42043:1,2006-11-03T09:30:00Z,28.9818,-94.9186,4.0,8.307610968,65.84107283,11.88,'11111222,11111222,11111222' 
TABS,ioos:station:wmo:42043:1,2006-11-03T10:00:00Z,28.9818,-94.9186,4.0,8.354747154,67.70156038,11.76,'11111222,11111222,11111222' 
TABS,ioos:station:wmo:42043:1,2006-11-03T10:30:00Z,28.9818,-94.9186,4.0,8.454880248,67.8332851,11.27,'11111222,11111222,11111222' 
TABS,ioos:station:wmo:42043:1,2006-11-03T11:00:00Z,28.9818,-94.9186,4.0,9.170741519,65.72631143,12.03,'11111222,11111222,11111222' 
TABS,ioos:station:wmo:42043:1,2006-11-03T11:30:00Z,28.9818,-94.9186,4.0,8.118503557,72.43508952,10.34,'11111222,11111222,11111222' 
TABS,ioos:station:wmo:42043:1,2006-11-03T12:00:00Z,28.9818,-94.9186,4.0,8.169657276,69.05778614,9.89,'11111222,11111222,11111222' 
TABS,ioos:station:wmo:42043:1,2006-11-03T12:30:00Z,28.9818,-94.9186,4.0,8.051757572,68.27750417,10.47,'11111222,11111222,11111222' 
TABS,ioos:station:wmo:42043:1,2006-11-03T13:00:00Z,28.9818,-94.9186,4.0,7.574536289,81.95507543,10.16,'11111222,11111222,11111222' 
TABS,ioos:station:wmo:42043:1,2006-11-03T13:30:00Z,28.9818,-94.9186,4.0,7.246937284,78.05394232,9.77,'11111222,11111222,11111222' 
TABS,ioos:station:wmo:42043:1,2006-11-03T14:00:00Z,28.9818,-94.9186,4.0,7.636995483,69.21527865,10.27,'11111222,11111222,11111222' 
TABS,ioos:station:wmo:42043:1,2006-11-03T14:30:00Z,28.9818,-94.9186,4.0,7.317820714,66.48233715,10.1,'11111222,11111222,11111222' 
TABS,ioos:station:wmo:42043:1,2006-11-03T15:00:00Z,28.9818,-94.9186,4.0,6.642484475,67.79778227,9.48,'11111222,11111222,11111222' 
TABS,ioos:station:wmo:42043:1,2006-11-03T15:30:00Z,28.9818,-94.9186,4.0,6.545693241,65.15724807,9.11,'11111222,11111222,11111222' 
TABS,ioos:station:wmo:42043:1,2006-11-03T16:00:00Z,28.9818,-94.9186,4.0,6.551496012,68.60422034,8.75,'11111222,11111222,11111222' 
TABS,ioos:station:wmo:42043:1,2006-11-03T16:30:00Z,28.9818,-94.9186,4.0,7.017834424,69.65380517,9.73,'11111222,11111222,11111222' 
TABS,ioos:station:wmo:42043:1,2006-11-03T17:00:00Z,28.9818,-94.9186,4.0,6.478001235,64.97740086,9.09,'11111222,11111222,11111222' 
TABS,ioos:station:wmo:42043:1,2006-11-03T17:30:00Z,28.9818,-94.9186,4.0,6.710588648,64.9621119,8.74,'11111222,11111222,11111222' 
TABS,ioos:station:wmo:42043:1,2006-11-03T18:00:00Z,28.9818,-94.9186,4.0,6.692951516,61.82644486,9.03,'11111222,11111222,11111222' 
TABS,ioos:station:wmo:42043:1,2006-11-03T18:30:00Z,28.9818,-94.9186,4.0,6.837696981,58.82033674,9.56,'11111222,11111222,11111222' 
TABS,ioos:station:wmo:42043:1,2006-11-03T19:00:00Z,28.9818,-94.9186,4.0,6.67883972,62.05331499,9.63,'11111222,11111222,11111222' 
TABS,ioos:station:wmo:42043:1,2006-11-03T19:30:00Z,28.9818,-94.9186,4.0,6.896093097,69.27826909,8.88,'11111222,11111222,11111222' 
TABS,ioos:station:wmo:42043:1,2006-11-03T20:00:00Z,28.9818,-94.9186,4.0,6.234075713,68.74436449,9.27,'11111222,11111222,11111222' 
TABS,ioos:station:wmo:42043:1,2006-11-03T20:30:00Z,28.9818,-94.9186,4.0,6.754035831,73.9260425,9.14,'11111222,11111222,11111222' 
TABS,ioos:station:wmo:42043:1,2006-11-03T21:00:00Z,28.9818,-94.9186,4.0,6.786199231,76.18861821,9.26,'11111222,11111222,11111222' 
TABS,ioos:station:wmo:42043:1,2006-11-03T21:30:00Z,28.9818,-94.9186,4.0,6.712525605,73.02240063,9.08,'11111222,11111222,11111222' 
TABS,ioos:station:wmo:42043:1,2006-11-03T22:00:00Z,28.9818,-94.9186,4.0,6.445122187,77.81792588,8.53,'11111222,11111222,11111222' 
TABS,ioos:station:wmo:42043:1,2006-11-03T22:30:00Z,28.9818,-94.9186,4.0,6.375578405,82.42870789,8.77,'11111222,11111222,11111222' 
TABS,ioos:station:wmo:42043:1,2006-11-03T23:00:00Z,28.9818,-94.9186,4.0,6.336095012,73.02320892,9.08,'11111222,11111222,11111222' 
TABS,ioos:station:wmo:42043:1,2006-11-03T23:30:00Z,28.9818,-94.9186,4.0,6.235102245,79.46462195,8.48,'11111222,11111222,11111222' 
TABS,ioos:station:wmo:42043:1,2006-11-04T00:00:00Z,28.9818,-94.9186,4.0,6.036638137,78.24293244,8.35,'11111222,11111222,11111222' 
TABS,ioos:station:wmo:42043:1,2006-11-04T00:30:00Z,28.9818,-94.9186,4.0,6.347030802,81.66523405,9.28,'11111222,11111222,11111222' 
TABS,ioos:station:wmo:42043:1,2006-11-04T01:00:00Z,28.9818,-94.9186,4.0,7.116417638,77.58432642,9.52,'11111222,11111222,11111222' 
TABS,ioos:station:wmo:42043:1,2006-11-04T01:30:00Z,28.9818,-94.9186,4.0,7.015140768,80.06732292,9.23,'11111222,11111222,11111222' 
TABS,ioos:station:wmo:42043:1,2006-11-04T02:00:00Z,28.9818,-94.9186,4.0,6.446153892,83.13917161,8.48,'11111222,11111222,11111222' 
TABS,ioos:station:wmo:42043:1,2006-11-04T02:30:00Z,28.9818,-94.9186,4.0,7.020348994,89.42827392,9.01,'11111222,11111222,11111222' 
TABS,ioos:station:wmo:42043:1,2006-11-04T03:00:00Z,28.9818,-94.9186,4.0,6.17020259,90.46471906,8.78,'11111222,11111222,11111222' 
TABS,ioos:station:wmo:42043:1,2006-11-04T03:30:00Z,28.9818,-94.9186,4.0,6.915272952,96.56019042,10.26,'11111222,11111222,11111222' 
TABS,ioos:station:wmo:42043:1,2006-11-04T04:00:00Z,28.9818,-94.9186,4.0,6.492780606,104.3576722,8.97,'11111222,11111222,11111222' 
TABS,ioos:station:wmo:42043:1,2006-11-04T04:30:00Z,28.9818,-94.9186,4.0,6.574328863,102.0281942,10.68,'11111222,11111222,11111222' 
TABS,ioos:station:wmo:42043:1,2006-11-04T05:00:00Z,28.9818,-94.9186,4.0,6.408626998,100.0653467,8.68,'11111222,11111222,11111222' 
TABS,ioos:station:wmo:42043:1,2006-11-04T05:30:00Z,28.9818,-94.9186,4.0,5.901160903,101.1389546,8.44,'11111222,11111222,11111222' 
TABS,ioos:station:wmo:42043:1,2006-11-04T06:00:00Z,28.9818,-94.9186,4.0,5.976520727,97.88646371,8.11,'11111222,11111222,11111222' 
TABS,ioos:station:wmo:42043:1,2006-11-04T06:30:00Z,28.9818,-94.9186,4.0,5.436616595,101.8890512,7.06,'11111222,11111222,11111222' 
TABS,ioos:station:wmo:42043:1,2006-11-04T07:00:00Z,28.9818,-94.9186,4.0,5.533904589,102.6302696,7.94,'11111222,11111222,11111222' 
TABS,ioos:station:wmo:42043:1,2006-11-04T07:30:00Z,28.9818,-94.9186,4.0,5.906352512,113.6575164,8.13,'11111222,11111222,11111222' 
TABS,ioos:station:wmo:42043:1,2006-11-04T08:00:00Z,28.9818,-94.9186,4.0,5.704734876,112.2493925,8.28,'11111222,11111222,11111222' 
TABS,ioos:station:wmo:42043:1,2006-11-04T08:30:00Z,28.9818,-94.9186,4.0,5.626170989,110.496822,7.37,'11111222,11111222,11111222' 
TABS,ioos:station:wmo:42043:1,2006-11-04T09:00:00Z,28.9818,-94.9186,4.0,5.151164917,113.3304025,6.81,'11111222,11111222,11111222' 
TABS,ioos:station:wmo:42043:1,2006-11-04T09:30:00Z,28.9818,-94.9186,4.0,5.56596802,107.7842678,7.47,'11111222,11111222,11111222' 
TABS,ioos:station:wmo:42043:1,2006-11-04T10:00:00Z,28.9818,-94.9186,4.0,4.926926019,112.5576148,7.29,'11111222,11111222,11111222' 
TABS,ioos:station:wmo:42043:1,2006-11-04T10:30:00Z,28.9818,-94.9186,4.0,5.019053696,98.01749524,6.55,'11111222,11111222,11111222' 
TABS,ioos:station:wmo:42043:1,2006-11-04T11:00:00Z,28.9818,-94.9186,4.0,5.821692194,112.2038475,7.82,'11111222,11111222,11111222' 
TABS,ioos:station:wmo:42043:1,2006-11-04T11:30:00Z,28.9818,-94.9186,4.0,5.611933713,106.885428,7.92,'11111222,11111222,11111222' 
TABS,ioos:station:wmo:42043:1,2006-11-04T12:00:00Z,28.9818,-94.9186,4.0,5.872418582,108.1576439,8.23,'11111222,11111222,11111222' 
TABS,ioos:station:wmo:42043:1,2006-11-04T12:30:00Z,28.9818,-94.9186,4.0,5.791614628,114.2641956,7.84,'11111222,11111222,11111222' 
TABS,ioos:station:wmo:42043:1,2006-11-04T13:00:00Z,28.9818,-94.9186,4.0,5.334285332,105.1047759,7.09,'11111222,11111222,11111222' 
TABS,ioos:station:wmo:42043:1,2006-11-04T13:30:00Z,28.9818,-94.9186,4.0,5.948108943,110.2632906,8.75,'11111222,11111222,11111222' 
TABS,ioos:station:wmo:42043:1,2006-11-04T14:00:00Z,28.9818,-94.9186,4.0,5.859573363,114.0720639,7.9,'11111222,11111222,11111222' 
TABS,ioos:station:wmo:42043:1,2006-11-04T14:30:00Z,28.9818,-94.9186,4.0,5.898042048,111.1703983,7.94,'11111222,11111222,11111222' 
TABS,ioos:station:wmo:42043:1,2006-11-04T15:00:00Z,28.9818,-94.9186,4.0,5.760156248,114.2961405,7.59,'11111222,11111222,11111222' 
TABS,ioos:station:wmo:42043:1,2006-11-04T15:30:00Z,28.9818,-94.9186,4.0,5.739764804,113.8412288,7.82,'11111222,11111222,11111222' 
TABS,ioos:station:wmo:42043:1,2006-11-04T16:00:00Z,28.9818,-94.9186,4.0,5.508920039,108.9615635,6.82,'11111222,11111222,11111222' 
TABS,ioos:station:wmo:42043:1,2006-11-04T16:30:00Z,28.9818,-94.9186,4.0,5.992862421,113.3998175,8.26,'11111222,11111222,11111222' 
TABS,ioos:station:wmo:42043:1,2006-11-04T17:00:00Z,28.9818,-94.9186,4.0,5.329024301,109.285348,7.45,'11111222,11111222,11111222' 
TABS,ioos:station:wmo:42043:1,2006-11-04T17:30:00Z,28.9818,-94.9186,4.0,5.18602931,103.1523443,7.02,'11111222,11111222,11111222' 
TABS,ioos:station:wmo:42043:1,2006-11-04T18:00:00Z,28.9818,-94.9186,4.0,5.073588474,101.5982423,6.55,'11111222,11111222,11111222' 
TABS,ioos:station:wmo:42043:1,2006-11-04T18:30:00Z,28.9818,-94.9186,4.0,6.366733857,83.05317424,8.3,'11111222,11111222,11111222' 